Retour au catalogue

COSMOS 2546

ActifNavigationHEO
NORAD 45608·PAYLOAD·🇷🇺 Russia

Lancé May 22, 2020 depuis Plesetsk Cosmodrome

Loading…

Prochains Passages (prochaines 24 heures)

TLE

VieillissantSource: Space-Track

Époque: Aug 31, 2026, 07:05 UTC

1 45608U 20031A   26243.29559994 -.00000360  00000-0  00000-0 0  9998
2 45608  63.1638  56.8572 7115328 266.6524  17.3178  2.00576418 45978

Suivez COSMOS 2546 en temps réel avec AllMySat

Download on the App Store